Weather History for Grayling, MI

Change the Weather History Date:

Wednesday, October 16, 2013

  Actual Average (KHTL) Record (KHTL)
Temperature  
Mean Temperature 52 °F 46 °F  
Max Temperature 57 °F 56 °F 86 °F (1938)
Min Temperature 48 °F 36 °F 19 °F (1940)
Degree Days  
Heating Degree Days 12 19  
Month to date heating degree days 267  
Since 1 July heating degree days 648  
Cooling Degree Days 0 0  
Month to date cooling degree days 0  
Year to date cooling degree days 285  
Growing Degree Days 2 (Base 50)    
Moisture  
Dew Point 50 °F    
Average Humidity 97    
Maximum Humidity 100    
Minimum Humidity 86    
Precipitation  
Precipitation 0.00 in 0.08 in 0.94 in (1954)
Month to date precipitation 1.37  
Year to date precipitation 23.59  
Snow  
Snow 0.00 in 0.00 in 1.70 in (1943)
Month to date snowfall 0.1  
Since 1 July snowfall 0.1  
Snow Depth -    
Sea Level Pressure  
Sea Level Pressure 29.76 in    
Wind  
Wind Speed 6 mph (SW)    
Max Wind Speed 13 mph    
Max Gust Speed 17 mph    
Visibility 7 miles    
Events Rain    
T = Trace of Precipitation, MM = Missing Value Source: NWS Daily Summary

Daily Weather History Graph

Daily Weather History Graph

Search for Another Location

Airport:

Trip Planner

Search our weather history database for the weather conditions in past years. The results will help you decide how hot, cold, wet, or windy it might be!

Date:

Astronomy

Oct. 16, 2013 Rise Set
Actual Time 7:55 AM EDT 6:52 PM EDT
Civil Twilight 7:26 AM EDT 7:21 PM EDT
Nautical Twilight 6:52 AM EDT 7:55 PM EDT
Astronomical Twilight 6:18 AM EDT 8:29 PM EDT
Moon 5:35 PM EDT 5:17 AM EDT
Length of Visible Light 11h 55m
Length of Day
10h 56m
Waxing Gibbous, 94% of the Moon is Illuminated
Oct 16
Waxing Gibbous
Oct 18
Full
Oct 26
Last Quarter
Nov 3
New
Nov 10
First Quarter

Hourly Weather History & Observations

Time (EDT) Temp. Dew Point Humidity Pressure Visibility Wind Dir Wind Speed Gust Speed Precip Events Conditions
12:15 AM 57.0 °F 57.0 °F 100% 29.74 in 10.0 mi SSW 3.5 mph - N/A   Mostly Cloudy
12:34 AM 55.9 °F 55.9 °F 100% 29.74 in 5.0 mi South 3.5 mph - N/A   Mostly Cloudy
12:55 AM 55.9 °F 55.9 °F 100% 29.74 in 7.0 mi South 4.6 mph - N/A   Overcast
1:15 AM 55.9 °F 55.9 °F 100% 29.73 in 7.0 mi South 3.5 mph - N/A   Overcast
1:35 AM 56.3 °F 56.3 °F 100% 29.73 in 7.0 mi South 5.8 mph - N/A   Mostly Cloudy
1:55 AM 55.9 °F 55.9 °F 100% 29.73 in 5.0 mi Calm Calm - N/A   Mostly Cloudy
2:14 AM 56.5 °F 56.5 °F 100% 29.73 in 7.0 mi SSW 4.6 mph - N/A   Mostly Cloudy
2:35 AM 56.5 °F 56.5 °F 100% 29.73 in 7.0 mi South 3.5 mph - N/A   Overcast
2:54 AM 57.0 °F 56.7 °F 99% 29.73 in 7.0 mi SSW 6.9 mph - N/A   Mostly Cloudy
3:15 AM 56.3 °F 55.0 °F 96% 29.73 in 10.0 mi SSW 8.1 mph - N/A   Mostly Cloudy
3:35 AM 55.8 °F 54.0 °F 94% 29.73 in 10.0 mi SW 5.8 mph - N/A   Scattered Clouds
3:54 AM 53.6 °F 52.3 °F 95% 29.73 in 10.0 mi SW 6.9 mph - N/A   Scattered Clouds
4:14 AM 53.6 °F 51.6 °F 93% 29.72 in 10.0 mi SSW 5.8 mph - N/A   Mostly Cloudy
4:35 AM 53.6 °F 50.9 °F 91% 29.73 in 10.0 mi SW 12.7 mph 17.3 mph N/A   Mostly Cloudy
4:55 AM 50.9 °F 46.9 °F 86% 29.73 in 10.0 mi SW 4.6 mph - N/A   Scattered Clouds
5:14 AM 50.5 °F 46.4 °F 86% 29.73 in 10.0 mi SSW 6.9 mph - N/A   Mostly Cloudy
5:35 AM 49.5 °F 46.6 °F 90% 29.73 in 10.0 mi SW 5.8 mph - N/A   Overcast
5:55 AM 49.6 °F 47.3 °F 92% 29.73 in 10.0 mi SSW 5.8 mph - N/A   Overcast
6:14 AM 49.6 °F 47.3 °F 92% 29.72 in 10.0 mi SSW 6.9 mph - N/A   Overcast
6:35 AM 49.5 °F 46.9 °F 91% 29.72 in 10.0 mi SSW 5.8 mph - N/A   Overcast
6:55 AM 49.1 °F 46.9 °F 92% 29.72 in 10.0 mi South 8.1 mph - N/A   Overcast
7:14 AM 48.4 °F 46.4 °F 93% 29.72 in 10.0 mi SSW 8.1 mph - N/A   Overcast
7:35 AM 48.4 °F 46.8 °F 94% 29.72 in 10.0 mi SSW 9.2 mph - N/A   Overcast
7:54 AM 48.4 °F 46.6 °F 93% 29.72 in 10.0 mi South 6.9 mph - N/A   Overcast
8:15 AM 48.4 °F 46.8 °F 94% 29.72 in 10.0 mi SSW 6.9 mph - N/A   Overcast
8:35 AM 48.4 °F 46.9 °F 95% 29.72 in 10.0 mi SSW 6.9 mph - N/A   Overcast
8:54 AM 48.4 °F 47.3 °F 96% 29.72 in 7.0 mi South 8.1 mph - N/A Rain Rain
9:15 AM 48.4 °F 47.3 °F 96% 29.72 in 7.0 mi SSW 8.1 mph - N/A   Overcast
9:34 AM 48.6 °F 47.3 °F 95% 29.72 in 10.0 mi SSW 5.8 mph - N/A   Overcast
9:55 AM 48.7 °F 47.5 °F 95% 29.72 in 10.0 mi SSW 8.1 mph - N/A   Overcast
10:14 AM 48.7 °F 47.7 °F 96% 29.72 in 2.0 mi SW 6.9 mph - N/A   Overcast
10:35 AM 48.4 °F 48.2 °F 99% 29.73 in 1.5 mi SW 9.2 mph - N/A Rain Rain
10:55 AM 48.4 °F 48.2 °F 99% 29.73 in 1.8 mi WSW 8.1 mph - N/A   Drizzle
11:14 AM 49.3 °F 49.3 °F 100% 29.73 in 3.0 mi WSW 5.8 mph - N/A   Light Drizzle
11:35 AM 49.6 °F 49.3 °F 99% 29.73 in 3.0 mi SW 6.9 mph - N/A   Overcast
11:54 AM 49.5 °F 48.9 °F 98% 29.74 in 2.0 mi SW 6.9 mph 16.1 mph N/A   Overcast
12:15 PM 49.3 °F 48.9 °F 99% 29.74 in 2.0 mi SW 6.9 mph - N/A Rain Rain
12:35 PM 50.4 °F 49.8 °F 98% 29.74 in 5.0 mi SW 8.1 mph - N/A   Overcast
12:54 PM 50.9 °F 50.0 °F 97% 29.74 in 10.0 mi WSW 6.9 mph 16.1 mph N/A   Overcast
1:15 PM 53.6 °F 51.8 °F 94% 29.73 in 10.0 mi WSW 9.2 mph - N/A   Overcast
1:34 PM 53.1 °F 50.2 °F 90% 29.73 in 10.0 mi SW 10.4 mph - N/A   Overcast
1:55 PM 53.4 °F 50.4 °F 89% 29.73 in 10.0 mi WSW 8.1 mph - N/A   Overcast
2:15 PM 51.4 °F 48.6 °F 90% 29.73 in 10.0 mi WSW 8.1 mph - N/A   Overcast
2:34 PM 50.9 °F 49.8 °F 96% 29.73 in 1.8 mi WSW 6.9 mph - N/A Rain Heavy Rain
2:55 PM 50.9 °F 50.4 °F 98% 29.73 in 2.0 mi SW 6.9 mph 16.1 mph N/A   Drizzle
3:15 PM 50.9 °F 50.5 °F 99% 29.73 in 5.0 mi WSW 6.9 mph - N/A Rain Rain
3:34 PM 50.9 °F 50.5 °F 99% 29.74 in 1.8 mi WSW 8.1 mph - N/A   Drizzle
3:55 PM 50.9 °F 50.9 °F 100% 29.74 in 1.8 mi West 10.4 mph - N/A   Drizzle
4:15 PM 52.5 °F 52.5 °F 100% 29.75 in 2.0 mi West 9.2 mph - N/A   Drizzle
4:35 PM 50.9 °F 50.2 °F 97% 29.75 in 5.0 mi WNW 10.4 mph 17.3 mph N/A   Overcast
4:54 PM 50.9 °F 50.2 °F 97% 29.76 in 2.5 mi WNW 5.8 mph - N/A   Overcast
5:15 PM 49.8 °F 49.3 °F 98% 29.77 in 3.0 mi WNW 6.9 mph - N/A   Overcast
5:35 PM 49.6 °F 49.3 °F 99% 29.78 in 4.0 mi West 6.9 mph - N/A   Overcast
5:54 PM 49.3 °F 49.1 °F 99% 29.78 in 4.0 mi West 5.8 mph - N/A   Light Drizzle
6:15 PM 48.4 °F 48.2 °F 99% 29.79 in 3.0 mi WNW 5.8 mph - N/A   Overcast
6:35 PM 48.4 °F 47.8 °F 98% 29.80 in 7.0 mi West 4.6 mph - N/A   Overcast
6:54 PM 48.4 °F 48.2 °F 99% 29.80 in 4.0 mi West 5.8 mph - N/A Rain Rain
7:15 PM 48.4 °F 48.2 °F 99% 29.81 in 7.0 mi West 5.8 mph - N/A   Overcast
7:34 PM 48.4 °F 48.2 °F 99% 29.81 in 10.0 mi West 5.8 mph - N/A   Overcast
7:55 PM 48.4 °F 48.2 °F 99% 29.82 in 7.0 mi West 5.8 mph - N/A   Overcast
8:14 PM 48.4 °F 48.4 °F 100% 29.83 in 3.0 mi WSW 4.6 mph - N/A   Overcast
8:35 PM 48.4 °F 48.4 °F 100% 29.83 in 5.0 mi West 3.5 mph - N/A Rain Light Rain
8:55 PM 48.4 °F 48.4 °F 100% 29.83 in 5.0 mi West 5.8 mph - N/A Rain Light Rain
9:35 PM 48.4 °F 48.2 °F 99% 29.84 in 10.0 mi WSW 5.8 mph - N/A   Overcast
9:54 PM 48.4 °F 48.2 °F 99% 29.85 in 10.0 mi WSW 4.6 mph - N/A   Overcast
10:14 PM 48.4 °F 48.2 °F 99% 29.85 in 10.0 mi West 5.8 mph - N/A   Overcast
10:35 PM 48.4 °F 48.2 °F 99% 29.85 in 10.0 mi West 3.5 mph - N/A   Overcast
10:54 PM 48.4 °F 48.2 °F 99% 29.86 in 10.0 mi West 4.6 mph - N/A   Overcast
11:15 PM 48.4 °F 47.8 °F 98% 29.86 in 10.0 mi West 4.6 mph - N/A   Overcast
11:34 PM 48.4 °F 47.8 °F 98% 29.85 in 7.0 mi Calm Calm - N/A   Overcast
11:55 PM 48.4 °F 48.2 °F 99% 29.86 in 10.0 mi West 3.5 mph - N/A   Overcast